Total_Precipitation_Accumulation
0.81 0.73 0.66 0.58 0.56 0.55 0.61 0.78 1.20 1.66 2.16 2.66 2.80 2.89 3.14 3.31 3.25 2.99 2.60 2.37 2.33 2.26 2.17 2.06 1.91 1.84 1.72 1.62 1.48 1.45 1.41 1.44 1.49 1.53 1.58 1.54 1.60 1.62 1.59 1.58 1.46 1.40 1.33 1.28
0.82 0.66 0.72 0.71 0.75 0.76 0.74 0.82 1.14 1.63 2.36 2.66 2.83 3.04 3.12 3.16 3.26 3.21 2.78 2.50 2.39 2.28 2.16 2.13 1.99 1.87 1.75 1.66 1.60 1.54 1.50 1.46 1.42 1.44 1.41 1.38 1.40 1.45 1.42 1.40 1.41 1.36 1.26 1.15
1.23 0.76 1.01 1.39 1.22 1.06 1.05 1.11 1.34 1.78 2.18 2.32 2.50 2.70 2.98 3.21 3.23 3.35 3.03 2.69 2.48 2.40 2.29 2.21 2.19 2.11 1.97 1.80 1.69 1.46 1.37 1.35 1.28 1.25 1.24 1.27 1.24 1.27 1.33 1.41 1.41 1.33 1.21 1.16
1.32 1.46 1.98 1.65 1.14 1.02 1.17 1.28 1.30 1.53 1.65 1.92 2.18 2.39 2.70 2.97 3.28 3.44 3.19 2.90 2.64 2.46 2.35 2.29 2.23 2.11 1.89 1.72 1.53 1.35 1.29 1.26 1.18 1.12 1.13 1.23 1.20 1.21 1.30 1.33 1.32 1.31 1.29 1.32
1.62 1.98 2.02 1.67 1.14 1.02 1.36 1.66 1.31 1.37 1.44 1.53 1.66 1.93 2.50 2.58 2.74 3.07 3.10 2.94 2.74 2.49 2.36 2.30 2.13 1.96 1.79 1.55 1.43 1.36 1.26 1.23 1.12 1.07 1.13 1.16 1.11 1.13 1.23 1.23 1.22 1.25 1.28 1.33
1.71 2.20 2.46 1.99 1.06 0.78 1.20 2.16 1.54 1.39 1.51 1.54 1.77 2.19 2.25 2.05 2.12 2.33 2.54 2.60 2.52 2.31 2.16 2.14 1.99 1.86 1.84 1.69 1.47 1.36 1.26 1.22 1.13 1.12 1.15 1.16 1.18 1.16 1.13 1.13 1.11 1.11 1.16 1.26
1.78 2.17 2.21 1.28 0.85 1.02 2.08 2.48 1.68 1.41 1.54 1.77 2.09 2.09 1.73 1.55 1.69 1.87 1.97 2.11 2.15 2.11 2.09 1.98 1.78 1.76 1.90 1.97 1.75 1.41 1.27 1.22 1.23 1.24 1.18 1.17 1.21 1.19 1.13 1.04 1.05 1.09 1.10 1.17
1.87 2.33 2.34 1.09 0.93 1.58 1.90 1.47 1.31 1.34 1.39 1.45 1.49 1.38 1.29 1.34 1.48 1.53 1.63 1.75 1.88 2.02 1.99 1.95 1.81 1.77 1.80 1.82 1.72 1.53 1.41 1.34 1.28 1.22 1.14 1.12 1.24 1.18 1.13 1.17 1.15 1.16 1.12 1.13
1.87 2.23 1.76 1.11 1.03 1.07 1.07 1.18 1.18 1.27 1.29 1.21 1.20 1.21 1.18 1.25 1.43 1.52 1.55 1.64 1.73 1.82 1.84 1.83 1.74 1.76 1.77 1.70 1.53 1.49 1.60 1.51 1.39 1.26 1.19 1.21 1.27 1.22 1.14 1.19 1.13 1.06 1.00 1.02
1.41 1.51 1.37 1.24 1.06 0.98 1.01 1.05 1.08 1.16 1.20 1.15 1.17 1.11 1.12 1.25 1.40 1.46 1.42 1.46 1.57 1.67 1.72 1.71 1.57 1.55 1.57 1.49 1.49 1.54 1.53 1.47 1.43 1.35 1.23 1.17 1.16 1.11 1.09 1.09 1.13 1.09 0.99 0.95
1.48 1.49 1.43 1.42 1.27 1.15 1.17 1.14 1.11 1.16 1.21 1.18 1.16 1.19 1.15 1.25 1.27 1.29 1.32 1.34 1.41 1.60 1.67 1.58 1.43 1.33 1.29 1.39 1.50 1.58 1.48 1.32 1.28 1.22 1.16 1.13 1.08 1.00 0.96 0.88 0.88 0.95 0.91 0.80
1.56 1.44 1.43 1.40 1.26 1.19 1.36 1.42 1.30 1.25 1.21 1.12 1.11 1.19 1.09 1.09 1.09 1.10 1.15 1.22 1.33 1.41 1.47 1.41 1.33 1.27 1.19 1.27 1.37 1.41 1.34 1.26 1.19 1.10 1.05 0.97 0.96 0.95 0.96 0.87 0.78 0.76 0.79 0.71
1.13 1.06 1.11 1.12 1.09 1.19 1.38 1.41 1.29 1.14 1.05 1.02 0.94 1.02 1.05 1.00 1.00 0.99 1.00 1.02 1.09 1.09 1.16 1.23 1.19 1.20 1.14 1.13 1.20 1.27 1.25 1.21 1.11 1.06 1.03 1.01 0.99 0.97 1.02 0.95 0.84 0.80 0.78 0.72
1.03 1.01 1.18 1.19 1.17 1.11 1.19 1.24 1.17 0.97 0.90 0.97 0.93 0.90 0.96 0.91 0.88 0.90 0.97 0.93 0.89 0.89 0.93 0.95 0.99 1.05 1.07 1.06 1.07 1.08 1.05 1.05 1.04 1.02 0.99 1.01 1.07 1.05 1.03 1.09 1.02 0.87 0.75 0.69
1.10 1.01 1.10 1.08 1.00 0.93 0.93 0.99 1.05 0.96 0.89 0.92 0.88 0.85 0.85 0.89 0.87 0.83 0.89 0.84 0.82 0.87 0.91 0.81 0.81 0.87 0.91 0.89 0.92 0.96 0.97 0.99 0.99 1.01 0.98 0.94 0.99 1.04 1.04 1.08 1.11 1.02 0.87 0.76
1.04 0.89 0.87 0.88 0.86 0.82 0.81 0.83 0.89 0.86 0.78 0.76 0.70 0.72 0.74 0.76 0.81 0.77 0.80 0.81 0.87 0.92 0.92 0.84 0.81 0.76 0.77 0.82 0.82 0.79 0.79 0.85 0.90 0.94 0.99 0.97 0.94 0.97 1.02 1.08 1.12 1.07 0.94 0.85
1.07 1.00 0.97 0.92 0.84 0.77 0.74 0.77 0.76 0.71 0.68 0.66 0.63 0.61 0.65 0.71 0.78 0.80 0.79 0.78 0.84 0.90 0.85 0.79 0.73 0.64 0.64 0.69 0.71 0.69 0.67 0.70 0.71 0.70 0.75 0.78 0.79 0.82 0.86 0.96 1.02 0.98 0.88 0.86
0.93 0.89 0.88 0.88 0.81 0.72 0.67 0.68 0.68 0.62 0.63 0.55 0.51 0.53 0.61 0.74 0.79 0.76 0.75 0.78 0.81 0.87 0.83 0.75 0.66 0.60 0.58 0.62 0.64 0.64 0.59 0.56 0.52 0.52 0.56 0.64 0.66 0.67 0.73 0.78 0.84 0.85 0.79 0.77
0.75 0.66 0.61 0.66 0.69 0.65 0.61 0.61 0.61 0.55 0.52 0.49 0.49 0.53 0.57 0.70 0.72 0.65 0.67 0.75 0.83 0.88 0.83 0.72 0.68 0.63 0.64 0.69 0.67 0.62 0.57 0.53 0.49 0.46 0.49 0.59 0.64 0.66 0.71 0.72 0.75 0.77 0.74 0.71
0.65 0.55 0.52 0.55 0.58 0.57 0.58 0.56 0.57 0.57 0.51 0.47 0.50 0.52 0.54 0.64 0.70 0.66 0.70 0.76 0.75 0.74 0.74 0.73 0.62 0.58 0.62 0.65 0.63 0.57 0.56 0.55 0.54 0.51 0.54 0.62 0.65 0.62 0.61 0.64 0.68 0.73 0.68 0.64
0.61 0.50 0.49 0.53 0.55 0.56 0.57 0.57 0.54 0.53 0.56 0.56 0.62 0.63 0.58 0.60 0.65 0.68 0.74 0.77 0.69 0.63 0.65 0.69 0.64 0.63 0.63 0.62 0.55 0.48 0.50 0.54 0.56 0.55 0.56 0.61 0.63 0.62 0.63 0.64 0.69 0.76 0.71 0.66
0.55 0.51 0.50 0.49 0.53 0.59 0.58 0.58 0.56 0.54 0.57 0.60 0.63 0.63 0.60 0.63 0.64 0.64 0.68 0.75 0.70 0.66 0.61 0.62 0.65 0.65 0.65 0.64 0.54 0.48 0.48 0.54 0.60 0.63 0.66 0.66 0.66 0.68 0.68 0.68 0.69 0.69 0.69 0.73
0.56 0.54 0.57 0.59 0.57 0.59 0.58 0.60 0.61 0.59 0.60 0.62 0.61 0.63 0.63 0.63 0.62 0.63 0.68 0.64 0.60 0.63 0.61 0.60 0.63 0.63 0.60 0.61 0.61 0.57 0.54 0.55 0.62 0.69 0.73 0.70 0.67 0.70 0.70 0.66 0.66 0.67 0.70 0.70
0.58 0.59 0.61 0.61 0.61 0.62 0.67 0.69 0.66 0.62 0.58 0.57 0.57 0.60 0.61 0.60 0.58 0.52 0.56 0.57 0.58 0.63 0.58 0.56 0.55 0.49 0.49 0.50 0.57 0.61 0.64 0.62 0.61 0.64 0.70 0.73 0.71 0.66 0.67 0.69 0.69 0.70 0.73 0.69
0.61 0.62 0.66 0.66 0.72 0.76 0.75 0.70 0.62 0.56 0.54 0.55 0.51 0.53 0.56 0.58 0.56 0.51 0.50 0.51 0.52 0.53 0.49 0.49 0.48 0.49 0.46 0.44 0.47 0.55 0.63 0.67 0.62 0.60 0.63 0.70 0.72 0.68 0.66 0.71 0.75 0.75 0.73 0.70
0.73 0.69 0.67 0.70 0.75 0.78 0.74 0.68 0.62 0.59 0.57 0.60 0.62 0.59 0.59 0.60 0.56 0.53 0.51 0.50 0.49 0.47 0.42 0.45 0.48 0.49 0.47 0.46 0.47 0.52 0.58 0.62 0.60 0.60 0.64 0.67 0.69 0.72 0.71 0.72 0.76 0.76 0.72 0.69
0.82 0.81 0.79 0.73 0.71 0.73 0.76 0.78 0.75 0.68 0.62 0.58 0.60 0.60 0.61 0.60 0.60 0.58 0.53 0.51 0.50 0.48 0.46 0.47 0.46 0.45 0.43 0.44 0.45 0.49 0.55 0.56 0.58 0.64 0.67 0.67 0.69 0.74 0.78 0.77 0.79 0.82 0.79 0.73